Regional Weather Roundup
Issued by NWS Wilmington, NC

Home | Current Version | Previous Version | Text Only | Print | Product List | Glossary On
Versions: 1 2 3 4 5 6 7 8 9 10 11 12 13 14 15 16 17 18 19 20 21 22 23 24 25 26 27
000
ASUS42 KILM 270513
RWRILM
RWRILM
REGIONAL HOURLY WEATHER ROUNDUP
NATIONAL WEATHER SERVICE WILMINGTON NC
100 AM EDT TUE SEP 27 2016

NOTE: "FAIR" INDICATES FEW OR NO CLOUDS BELOW 12,000 FEET WITH NO
SIGNIFICANT WEATHER AND/OR OBSTRUCTIONS TO VISIBILITY.

...............WFO WILMINGTON COUNTY WARNING AREA...............

......COASTAL NC AND SC COUNTIES......

CITY           SKY/WX    TMP DP  RH WIND       PRES   REMARKS
WILMINGTON     CLOUDY    71  68  90 NE3       30.01F
N MYRTLE BEACH CLOUDY    78  72  81 SE3       30.00F
MYRTLE BEACH   CLOUDY    79  64  61 SE12      30.02F

......INLAND NC AND SC COUNTIES.......

CITY           SKY/WX    TMP DP  RH WIND       PRES   REMARKS
LUMBERTON      CLOUDY    69  67  93 CALM      30.01F
ELIZABETHTOWN  CLOUDY    70  69  96 CALM      30.03F
WHITEVILLE     NOT AVBL
FLORENCE       CLOUDY    73  70  90 CALM      30.02F
DARLINGTON     NOT AVBL
KINGSTREE      FAIR      70  68  94 CALM      30.01F
HARTSVILLE     MOCLDY    70  68  94 CALM      30.03S
BENNETTSVILLE  FAIR      72  70  94 CALM      30.03S FOG
CONWAY         FAIR      72  70  94 CALM      30.01S FOG
GEORGETOWN     FAIR      72  72 100 CALM      30.01S
MARION         FAIR      70  68  94 CALM      30.02F

....................REST OF NORTH CAROLINA......................

.........EASTERN NC.........

CITY           SKY/WX    TMP DP  RH WIND       PRES   REMARKS
CAPE HATTERAS  CLEAR     78  65  63 S14       30.03F
JACKSONVILLE   CLOUDY    67  67 100 CALM      30.03F
MOREHEAD CITY  CLEAR     71  66  84 SE3       30.02F
KENANSVILLE    MOCLDY    66  66 100 CALM      30.03F FOG
NEW BERN       CLEAR     68  66  93 CALM      30.04F
ELIZABETH CITY MOCLDY    72  66  81 S5        30.02F

.........CENTRAL NC.........

CITY           SKY/WX    TMP DP  RH WIND       PRES   REMARKS
RALEIGH DURHAM CLOUDY    72  68  87 SW9       30.03F
ROCKY MOUNT    CLOUDY    70  67  90 S5        30.02F
ROANOKE RAPIDS NOT AVBL
FAYETTEVILLE   CLOUDY    74  67  78 SW5       30.02F
HOFFMAN        MOCLDY    72  69  89 NW6       30.04R

.........WESTERN NC.........

CITY           SKY/WX    TMP DP  RH WIND       PRES   REMARKS
CHARLOTTE      LGT RAIN  68  65  90 S7        30.06F
GREENSBORO     LGT RAIN  68  68 100 S8        30.04S
HICKORY        NOT AVBL
BOONE          NOT AVBL
ASHEVILLE      NOT AVBL

.....................REST OF SOUTH CAROLINA.....................

.........EASTERN SC.........

CITY           SKY/WX    TMP DP  RH WIND       PRES   REMARKS
CHARLESTON     LGT RAIN  75  72  90 N6        30.00F
BEAUFORT MCAS  CLOUDY    74  72  93 N5        29.99F
HILTON HEAD    CLOUDY    75  73  94 N7        29.99F

.........CENTRAL SC.........

CITY           SKY/WX    TMP DP  RH WIND       PRES   REMARKS
COLUMBIA       PTCLDY    73  69  87 CALM      30.02F
ORANGEBURG     CLOUDY    72  71  97 CALM      30.01F
SUMTER SHAW    CLOUDY    71  68  91 N3        30.00S

.........WESTERN SC.........

CITY           SKY/WX    TMP DP  RH WIND       PRES   REMARKS
GREENVILLE     NOT AVBL
ROCK HILL      HVY RAIN  68  66  93 SE6       30.07F FOG
ANDERSON       CLOUDY    70  68  93 CALM      30.04F
CLEMSON        NOT AVBL
GREENWOOD      CLOUDY    70  65  84 CALM      30.05F


...................COASTAL AND OFFSHORE REPORTS..................

................LOCAL PIERS AND NC RESERVE................


STATION/POSITION TIME  SKY/WX   TEMP    WIND        PRES    VSBY
                                AIR SEA DIR/SP/G
                 (UTC)          (F)     (DEG/KT/KT) (MB)    (MI)
JOHNY MRCER PIER 0448            80 82  140/ 10/ 12 1015.3F
NC RESRV MASNBRO 0345            78     170/  4     1016.0
OCEAN CREST PIER NOT AVBL
SPRINGMAID  PIER 0448            79 82  110/ 11/ 13 1015.6F


................COASTAL AND OFFSHORE BUOYS................


STATION/POSITION TIME  SKY/WX   TEMP    WIND        PRES    VSBY
                                AIR SEA DIR/SP/G
                 (UTC)          (F)     (DEG/KT/KT) (MB)    (MI)
DIMNDSHOAL 41025 0450            79 85  160/ 16/ 19 1016.7F
WVE H/P(F/S)=  4/ 7 SWL H/P/D(F/S/D)=  2/ 90/ 9

CAPE LOOKOUT     0400            78     160/  6/  7 1016.6F
ONSLOW BAY 41036 NOT AVBL
ONSLOW BAY 41064 0408            80 82  130/ 10/ 16 1016.6F
ONSLOW BAY 41159 0455               82                N/A
WVE H/P(F/S)=  3/ 8

5SE WRITBC 41038 0408            80 81  150/ 10/ 14 1017.7F
MASNBO INL 41110 0359               81                N/A
WVE H/P(F/S)=  3/ 5

WILM HARBR 41108 0356               81                N/A
WVE H/P(F/S)=  3/ 4

27SE WRITB 41037 0408            80 81  140/ 10/ 14 1016.7F
FRYING PAN 41013 0450            80 82  110/ 14/ 17 1015.1F
WVE H/P(F/S)=  4/ 5 SWL H/P/D(F/S/D)=  2/120/ 8

SUNST NRSH 41024 0408            80 81  130/ 12/ 17 1015.6F
CAPRS NRSH 41029 0408            79 81  120/ 10/ 14 1015.4F
EDISTO     41004 0450            80 82  110/ 10/ 12 1014.4F
WVE H/P(F/S)=  3/ 5 SWL H/P/D(F/S/D)=  3/ 60/ 5



..........OFFSHORE BUOYS BEYOND 100 NM OFFSHORE...........
.....IN A TRIANGLE---HAT TO BERMUDA TO BAHAMAS TO HAT.....


STATION/POSITION TIME  SKY/WX   TEMP    WIND        PRES    VSBY
                                AIR SEA DIR/SP/G
                 (UTC)          (F)     (DEG/KT/KT) (MB)    (MI)
150E HAT   41001 NOT AVBL
W BERMUDA  41048 0450            78 83   80/ 16/ 19 1018.4F
WVE H/P(F/S)=  6/ 8 SWL H/P/D(F/S/D)=  5/ 30/ 8

ATLANTIC S 41049 0450            81 83   50/  4/  4 1016.4F
WVE H/P(F/S)=  5/ 8 SWL H/P/D(F/S/D)=  5/360/ 8

E BAHAMAS  41046 0450            85 86  100/  8/ 10 1015.0F
WVE H/P(F/S)=  4/12 SWL H/P/D(F/S/D)=  3/ 90/12

NE BAHAMAS 41047 0450            80 86   10/ 14/ 16 1015.0F
WVE H/P(F/S)=  6/ 8 SWL H/P/D(F/S/D)=  5/ 40/ 8

120E CANVRL41010 NOT AVBL

END




USA.gov is the U.S. government's official web portal to all federal, state and local government web resources and services.